sat.trackr.live / text

‹ back to catalog

STARLINK-1362

NORAD 45538 · 2020-025H

PAYLOAD ACTIVE UNKNOWN

§ Identity

Operator
Country
US
Launch date
2020-04-22
Launch site
AFETR
Launch vehicle
Mass (kg)
RCS (m²)

Purposes: comms

External: N2YO · Heavens-Above · Gunter

§ Orbital elements

Epoch: 2026-09-19T15:28:13.323360Z

Period
93.14 min
Inclination
53.1524°
Eccentricity
0.0002915
Mean motion
15.46081520 rev/d
Perigee alt
426.2 km
Apogee alt
430.2 km
Semi-major
6,806.3 km
B*
5.8976e-4
RAAN
269.4330°
Arg perigee
54.2291°
Mean anomaly
305.8987°
Rev number
35,502

§ Raw data

STARLINK-13621 45538U 20025H   26262.64459865  .00028997  00000+0  58976-3 0  99912 45538  53.1524 269.4330 0002915  54.2291 305.8987 15.46081520355021

JSON: /api/v1/satellites/45538 · /tle

For live sub-satellite position, see the globe view (requires WebGL).

§ Visibility from observer

Set your observer location to see the next 7 days of passes ≥ 10°. The values pass through the URL so the page stays shareable.

No JS? Fill the form by hand. The geolocation button needs JavaScript.